This is the latest recevied weather packets stored in our database for station/object IU3NMQ-10. If no packets are shown the sender has not sent any weather packets the latest 10 day(s).
| Time | Temp. | Humidity | Pressure | Rain* | Wind** | Luminosity | Snow |
|---|---|---|---|---|---|---|---|
| 1777823783 | 26.11° C | 36% | 1012.8 hPa | - | - | - | - |
| 1777822883 | 27.22° C | 36% | 1012.7 hPa | - | - | - | - |
| 1777821983 | 27.22° C | 35% | 1012.7 hPa | - | - | - | - |
| 1777821082 | 27.78° C | 35% | 1012.7 hPa | - | - | - | - |
| 1777820182 | 28.33° C | 34% | 1012.8 hPa | - | - | - | - |
| 1777819282 | 29.44° C | 33% | 1012.9 hPa | - | - | - | - |
| 1777818382 | 32.22° C | 30% | 1013 hPa | - | - | - | - |
| 1777817482 | 32.22° C | 29% | 1013.2 hPa | - | - | - | - |
| 1777816582 | 32.78° C | 28% | 1013.1 hPa | - | - | - | - |
| 1777815682 | 31.11° C | 30% | 1013.4 hPa | - | - | - | - |
| 1777814782 | 30.56° C | 29% | 1013.5 hPa | - | - | - | - |
| 1777813881 | 31.11° C | 29% | 1013.5 hPa | - | - | - | - |
| 1777812981 | 31.67° C | 30% | 1013.6 hPa | - | - | - | - |
| 1777812084 | 31.11° C | 30% | 1013.8 hPa | - | - | - | - |
| 1777811181 | 31.11° C | 30% | 1014 hPa | - | - | - | - |
| 1777810284 | 31.11° C | 30% | 1014.1 hPa | - | - | - | - |
| 1777809381 | 31.11° C | 30% | 1014.2 hPa | - | - | - | - |
| 1777808480 | 30° C | 31% | 1014.3 hPa | - | - | - | - |
| 1777807580 | 30° C | 32% | 1014.5 hPa | - | - | - | - |
| 1777806680 | 30° C | 32% | 1014.5 hPa | - | - | - | - |
| 1777805783 | 29.44° C | 34% | 1014.7 hPa | - | - | - | - |
| 1777804880 | 28.89° C | 33% | 1015 hPa | - | - | - | - |
| 1777804015 | 28.89° C | 35% | 1015.1 hPa | - | - | - | - |
| 1777803980 | 28.89° C | 35% | 1015.1 hPa | - | - | - | - |
| 1777803080 | 27.78° C | 36% | 1015.2 hPa | - | - | - | - |
* Rain since midnight (hover to see other rain measurements)
** Current wind speed in m/s (hover to see current wind gust speed)